Location: Skalnate Pleso
(49.1889°N, 20.2450°E)
Time: 03:20:21
(UTC+01:00)

ATLAS 2AS CENTAUR R/B - Pass Details

Date: 19 November 2019
Orbit: 926 x 1286 km, 63.7° (Epoch: 09 December)

Event Time Altitude Azimuth Distance (km) Brightness Sun altitude
Exits shadow 04:53:43 26° 305° (NW) 2,200 3.8 -19.5°
Maximum altitude 04:58:05 56° 239° (WSW) 1,367 3.0 -18.8°
Drops below altitude 10° 05:04:54 10° 163° (SSE) 2,937 5.3 -17.7°
Sets 05:07:30 0° 159° (SSE) 3,838 6.0 -17.2°
